EDT,Max TemperatureF,Mean TemperatureF,Min TemperatureF,Max Dew PointF,MeanDew PointF,Min DewpointF,Max Humidity, Mean Humidity, Min Humidity, Max Sea Level PressureIn, Mean Sea Level PressureIn, Min Sea Level PressureIn, Max VisibilityMiles, Mean VisibilityMiles, Min VisibilityMiles, Max Wind SpeedMPH, Mean Wind SpeedMPH, Max Gust SpeedMPH,PrecipitationIn, CloudCover, Events, WindDirDegrees
2013-3-1,50,44,39,29,26,23,63,49,35,29.88,29.82,29.77,10,10,10,10,9,18,0.00,7,,296
2013-3-2,42,38,34,25,22,20,59,50,43,29.90,29.86,29.82,10,10,10,13,8,17,0.00,8,,320
2013-3-3,45,38,32,23,18,16,61,46,34,29.92,29.87,29.81,10,10,10,20,9,25,0.00,3,,331
2013-3-4,48,39,30,21,16,13,64,42,26,30.06,29.99,29.93,10,10,10,18,10,24,0.00,0,,306
2013-3-5,50,38,26,36,26,18,81,61,32,30.11,29.98,29.73,10,9,4,16,4,25,0.24,4,Rain,89
2013-3-6,50,44,39,45,37,31,87,78,65,29.88,29.50,29.30,10,8,2,25,16,39,0.69,8,Rain,349
2013-3-7,53,47,41,31,27,24,65,48,34,30.14,30.05,29.90,10,10,10,23,16,33,0.00,3,,333
2013-3-8,51,44,37,28,25,23,60,48,38,30.22,30.14,30.09,10,10,10,25,14,34,0.00,4,,329
2013-3-9,62,50,36,31,26,18,76,48,19,30.31,30.27,30.22,10,10,10,12,8,18,0.00,0,,3
2013-3-10,57,44,30,41,33,19,86,66,25,30.35,30.31,30.28,10,9,4,12,3,,0.00,1,,97
2013-3-11,71,52,35,48,40,34,93,73,44,30.28,30.17,30.01,10,6,0,15,3,23,0.00,1,Fog,157
2013-3-12,70,62,52,61,54,38,83,73,59,30.00,29.83,29.73,10,9,2,17,11,25,0.45,6,Rain,194
2013-3-13,57,46,37,33,27,22,63,46,31,30.04,29.98,29.91,10,10,10,14,8,21,0.00,3,,309
2013-3-14,52,43,34,27,16,8,70,35,21,30.17,30.10,30.04,10,10,10,18,11,30,0.00,0,,306
2013-3-15,60,44,28,33,25,18,79,45,23,30.14,30.01,29.85,10,10,10,18,5,25,0.00,0,,235
2013-3-16,70,60,50,52,44,32,88,64,43,29.89,29.78,29.61,10,7,2,13,7,17,0.25,4,Rain,237
2013-3-17,48,47,39,52,36,30,88,75,67,30.27,30.10,29.84,10,7,4,16,8,20,0.01,7,Rain,46
2013-3-18,48,42,37,43,38,30,93,82,70,30.27,30.12,29.88,10,3,1,15,8,22,0.30,8,Rain,49
2013-3-19,64,53,42,42,35,11,86,64,17,29.94,29.82,29.77,10,7,1,18,5,24,0.01,5,Rain,268
2013-3-20,57,49,43,29,13,2,51,24,15,30.06,29.95,29.80,10,10,10,16,10,22,0.00,0,,261
2013-3-21,46,40,33,30,21,8,60,47,33,29.94,29.78,29.69,10,10,3,15,10,24,0.00,5,Snow,335
2013-3-22,53,42,30,24,14,8,64,37,20,30.03,29.97,29.91,10,10,10,16,8,26,0.00,0,,289
2013-3-23,57,44,30,30,24,17,82,50,22,30.06,29.99,29.91,10,10,10,13,3,16,0.00,1,,331
2013-3-24,44,38,33,34,30,25,82,74,49,29.96,29.78,29.61,10,6,0,17,7,28,0.50,6,Fog-Rain-Snow,48
2013-3-25,43,39,35,34,32,30,87,77,67,29.72,29.55,29.48,10,8,2,17,9,28,0.33,8,Rain-Snow,306
2013-3-26,51,42,35,32,28,18,72,53,42,30.01,29.87,29.74,10,10,10,10,7,20,0.00,5,,297
2013-3-27,55,46,39,27,24,21,58,42,31,30.14,30.07,30.01,10,10,10,16,9,26,0.00,3,,302
2013-3-28,57,47,39,28,25,22,58,43,30,30.24,30.15,30.11,10,10,10,16,9,24,0.00,3,,319
2013-3-29,60,47,37,31,27,25,67,49,29,30.29,30.23,30.17,10,10,10,12,5,17,0.00,4,,305
2013-3-30,66,51,36,34,29,23,79,46,20,30.23,30.18,30.12,10,10,10,12,4,20,0.00,2,,206
2013-3-31,64,58,51,54,45,31,82,65,43,30.14,29.94,29.79,10,8,2,14,7,,0.32,5,Rain,181